Year,Month,Day,Hour,Minute,Value (Times are PST for temperature in C)
2012,01,14,00,00,0.80
2012,01,14,00,01,0.80
2012,01,14,00,02,0.80
2012,01,14,00,03,0.80
2012,01,14,00,04,0.80
2012,01,14,00,05,0.80
2012,01,14,00,06,0.80
2012,01,14,00,07,0.70
2012,01,14,00,08,0.70
2012,01,14,00,09,0.70
2012,01,14,00,10,0.70
2012,01,14,00,11,0.70
2012,01,14,00,12,0.70
2012,01,14,00,13,0.70
2012,01,14,00,14,0.70
2012,01,14,00,15,0.70
2012,01,14,00,16,0.70
2012,01,14,00,17,0.70
2012,01,14,00,18,0.70
2012,01,14,00,19,0.70
2012,01,14,00,20,0.70
2012,01,14,00,21,0.70
2012,01,14,00,22,0.70
2012,01,14,00,23,0.70
2012,01,14,00,24,0.70
2012,01,14,00,25,0.70
2012,01,14,00,26,0.70
2012,01,14,00,27,0.70
2012,01,14,00,28,0.70
2012,01,14,00,29,0.70
2012,01,14,00,30,0.70
2012,01,14,00,31,0.70
2012,01,14,00,32,0.70
2012,01,14,00,33,0.60
2012,01,14,00,34,0.60
2012,01,14,00,35,0.70
2012,01,14,00,36,0.60
2012,01,14,00,37,0.70
2012,01,14,00,38,0.70
2012,01,14,00,39,0.70
2012,01,14,00,40,0.70
2012,01,14,00,41,0.60
2012,01,14,00,42,0.60
2012,01,14,00,43,0.60
2012,01,14,00,44,0.60
2012,01,14,00,45,0.70
2012,01,14,00,46,0.60
2012,01,14,00,47,0.60
2012,01,14,00,48,0.60
2012,01,14,00,49,0.60
2012,01,14,00,50,0.60
2012,01,14,00,51,0.60
2012,01,14,00,52,0.60
2012,01,14,00,53,0.60
2012,01,14,00,54,0.60
2012,01,14,00,55,0.60
2012,01,14,00,56,0.60
2012,01,14,00,57,0.70
2012,01,14,00,58,0.60
2012,01,14,00,59,0.70
2012,01,14,01,00,0.70
2012,01,14,01,01,0.70
2012,01,14,01,02,0.70
2012,01,14,01,03,0.70
2012,01,14,01,04,0.70
2012,01,14,01,05,0.70
2012,01,14,01,06,0.70
2012,01,14,01,07,0.70
2012,01,14,01,08,0.70
2012,01,14,01,09,0.70
2012,01,14,01,10,0.70
2012,01,14,01,11,0.70
2012,01,14,01,12,0.70
2012,01,14,01,13,0.70
2012,01,14,01,14,0.70
2012,01,14,01,15,0.70
2012,01,14,01,16,0.70
2012,01,14,01,17,0.70
2012,01,14,01,18,0.70
2012,01,14,01,19,0.70
2012,01,14,01,20,0.70
2012,01,14,01,21,0.70
2012,01,14,01,22,0.70
2012,01,14,01,23,0.70
2012,01,14,01,24,0.70
2012,01,14,01,25,0.70
2012,01,14,01,26,0.70
2012,01,14,01,27,0.70
2012,01,14,01,28,0.70
2012,01,14,01,29,0.70
2012,01,14,01,30,0.70
2012,01,14,01,31,0.70
2012,01,14,01,32,0.70
2012,01,14,01,33,0.80
2012,01,14,01,34,0.80
2012,01,14,01,35,0.80
2012,01,14,01,36,0.80
2012,01,14,01,37,0.80
2012,01,14,01,38,0.80
2012,01,14,01,39,0.80
2012,01,14,01,40,0.80
2012,01,14,01,41,0.80
2012,01,14,01,42,0.80
2012,01,14,01,43,0.80
2012,01,14,01,44,0.80
2012,01,14,01,45,0.80
2012,01,14,01,46,0.80
2012,01,14,01,47,0.80
2012,01,14,01,48,0.80
2012,01,14,01,49,0.70
2012,01,14,01,50,0.80
2012,01,14,01,51,0.80
2012,01,14,01,52,0.80
2012,01,14,01,53,0.70
2012,01,14,01,54,0.70
2012,01,14,01,55,0.70
2012,01,14,01,56,0.70
2012,01,14,01,57,0.70
2012,01,14,01,58,0.70
2012,01,14,01,59,0.70
2012,01,14,02,00,0.70
2012,01,14,02,01,0.70
2012,01,14,02,02,0.70
2012,01,14,02,03,0.70
2012,01,14,02,04,0.70
2012,01,14,02,05,0.70
2012,01,14,02,06,0.70
2012,01,14,02,07,0.70
2012,01,14,02,08,0.70
2012,01,14,02,09,0.70
2012,01,14,02,10,0.70
2012,01,14,02,11,0.70
2012,01,14,02,12,0.70
2012,01,14,02,13,0.60
2012,01,14,02,14,0.60
2012,01,14,02,15,0.60
2012,01,14,02,16,0.60
2012,01,14,02,17,0.60
2012,01,14,02,18,0.60
2012,01,14,02,19,0.60
2012,01,14,02,20,0.60
2012,01,14,02,21,0.60
2012,01,14,02,22,0.70
2012,01,14,02,23,0.70
2012,01,14,02,24,0.70
2012,01,14,02,25,0.70
2012,01,14,02,26,0.60
2012,01,14,02,27,0.60
2012,01,14,02,28,0.60
2012,01,14,02,29,0.60
2012,01,14,02,30,0.60
2012,01,14,02,31,0.70
2012,01,14,02,32,0.60
2012,01,14,02,33,0.60
2012,01,14,02,34,0.60
2012,01,14,02,35,0.60
2012,01,14,02,36,0.60
2012,01,14,02,37,0.60
2012,01,14,02,38,0.60
2012,01,14,02,39,0.60
2012,01,14,02,40,0.60
2012,01,14,02,41,0.60
2012,01,14,02,42,0.60
2012,01,14,02,43,0.60
2012,01,14,02,44,0.60
2012,01,14,02,45,0.60
2012,01,14,02,46,0.60
2012,01,14,02,47,0.60
2012,01,14,02,48,0.60
2012,01,14,02,49,0.60
2012,01,14,02,50,0.60
2012,01,14,02,51,0.60
2012,01,14,02,52,0.60
2012,01,14,02,53,0.60
2012,01,14,02,54,0.60
2012,01,14,02,55,0.70
2012,01,14,02,56,0.70
2012,01,14,02,57,0.70
2012,01,14,02,58,0.70
2012,01,14,02,59,0.70
2012,01,14,03,00,0.70
2012,01,14,03,01,0.70
2012,01,14,03,02,0.70
2012,01,14,03,03,0.70
2012,01,14,03,06,0.70
2012,01,14,03,07,0.70
2012,01,14,03,08,0.70
2012,01,14,03,09,0.70
2012,01,14,03,10,0.80
2012,01,14,03,11,0.80
2012,01,14,03,12,0.80
2012,01,14,03,13,0.80
2012,01,14,03,14,0.80
2012,01,14,03,15,0.80
2012,01,14,03,16,0.80
2012,01,14,03,17,0.80
2012,01,14,03,18,0.80
2012,01,14,03,19,0.80
2012,01,14,03,20,0.80
2012,01,14,03,21,0.80
2012,01,14,03,22,0.90
2012,01,14,03,23,0.90
2012,01,14,03,24,0.90
2012,01,14,03,25,0.90
2012,01,14,03,26,0.90
2012,01,14,03,27,0.90
2012,01,14,03,28,0.80
2012,01,14,03,29,0.80
2012,01,14,03,30,0.80
2012,01,14,03,31,0.80
2012,01,14,03,32,0.80
2012,01,14,03,33,0.80
2012,01,14,03,34,0.80
2012,01,14,03,35,0.80
2012,01,14,03,36,0.80
2012,01,14,03,37,0.80
2012,01,14,09,00,2.10
2012,01,14,09,01,2.10
2012,01,14,09,02,2.10
2012,01,14,09,03,2.10
2012,01,14,09,04,2.20
2012,01,14,09,05,2.20
2012,01,14,09,06,2.20
2012,01,14,09,07,2.20
2012,01,14,09,08,2.20
2012,01,14,09,09,2.20
2012,01,14,09,10,2.20
2012,01,14,09,11,2.30
2012,01,14,09,12,2.30
2012,01,14,09,13,2.40
2012,01,14,09,14,2.40
2012,01,14,09,15,2.40
2012,01,14,09,16,2.40
2012,01,14,09,17,2.40
2012,01,14,09,18,2.40
2012,01,14,09,19,2.50
2012,01,14,09,20,2.50
2012,01,14,09,21,2.50
2012,01,14,09,22,2.50
2012,01,14,09,23,2.60
2012,01,14,09,24,2.60
2012,01,14,09,25,2.70
2012,01,14,09,26,2.70
2012,01,14,09,27,2.70
2012,01,14,09,28,2.70
2012,01,14,09,29,2.70
2012,01,14,09,30,2.70
2012,01,14,09,31,2.70
2012,01,14,09,32,2.70
2012,01,14,09,33,2.70
2012,01,14,09,34,2.70
2012,01,14,09,35,2.70
2012,01,14,09,36,2.70
2012,01,14,09,37,2.60
2012,01,14,09,38,2.60
2012,01,14,09,39,2.70
2012,01,14,09,40,2.70
2012,01,14,09,41,2.80
2012,01,14,09,42,2.80
2012,01,14,09,43,2.80
2012,01,14,09,44,2.80
2012,01,14,09,45,2.80
2012,01,14,09,46,2.80
2012,01,14,09,47,2.90
2012,01,14,09,48,2.90
2012,01,14,09,49,2.90
2012,01,14,09,50,2.90
2012,01,14,09,51,2.80
2012,01,14,09,52,2.80
2012,01,14,09,53,2.80
2012,01,14,09,54,2.80
2012,01,14,09,55,2.80
2012,01,14,09,56,2.70
2012,01,14,09,57,2.70
2012,01,14,09,58,2.70
2012,01,14,09,59,2.60
2012,01,14,10,00,2.60
2012,01,14,10,01,2.60
2012,01,14,10,02,2.60
2012,01,14,10,03,2.70
2012,01,14,10,04,2.70
2012,01,14,10,05,2.70
2012,01,14,10,06,2.70
2012,01,14,10,07,2.70
2012,01,14,10,08,2.70
2012,01,14,10,09,2.70
2012,01,14,10,10,2.80
2012,01,14,10,11,2.80
2012,01,14,10,12,2.80
2012,01,14,10,13,2.80
2012,01,14,10,14,2.80
2012,01,14,10,15,2.90
2012,01,14,10,16,2.90
2012,01,14,10,17,2.90
2012,01,14,10,18,2.90
2012,01,14,10,19,2.90
2012,01,14,10,20,2.90
2012,01,14,10,21,2.90
2012,01,14,10,22,2.90
2012,01,14,10,23,2.90
2012,01,14,10,24,2.90
2012,01,14,10,25,2.90
2012,01,14,10,26,2.90
2012,01,14,10,27,2.90
2012,01,14,10,28,2.90
2012,01,14,10,29,2.90
2012,01,14,10,30,2.90
2012,01,14,10,31,2.90
2012,01,14,10,32,3.00
2012,01,14,10,33,3.00
2012,01,14,10,34,3.00
2012,01,14,10,35,3.00
2012,01,14,10,36,3.00
2012,01,14,10,37,3.00
2012,01,14,10,38,3.00
2012,01,14,10,39,3.10
2012,01,14,10,40,3.10
2012,01,14,10,41,3.10
2012,01,14,10,42,3.20
2012,01,14,10,43,3.20
2012,01,14,10,44,3.20
2012,01,14,10,45,3.30
2012,01,14,10,46,3.30
2012,01,14,10,47,3.40
2012,01,14,10,48,3.50
2012,01,14,10,49,3.60
2012,01,14,10,50,3.60
2012,01,14,10,51,3.70
2012,01,14,10,52,3.80
2012,01,14,10,53,3.80
2012,01,14,10,54,3.80
2012,01,14,10,55,3.80
2012,01,14,10,56,3.80
2012,01,14,10,57,3.90
2012,01,14,10,58,3.90
2012,01,14,10,59,3.90
2012,01,14,11,00,3.90
2012,01,14,11,01,4.00
2012,01,14,11,02,4.00
2012,01,14,11,03,4.10
2012,01,14,11,04,4.10
2012,01,14,11,05,4.10
2012,01,14,11,06,4.10
2012,01,14,11,07,4.10
2012,01,14,11,08,4.10
2012,01,14,11,09,4.10
2012,01,14,11,10,4.10
2012,01,14,11,11,4.10
2012,01,14,11,12,4.20
2012,01,14,11,13,4.20
2012,01,14,11,14,4.20
2012,01,14,11,15,4.20
2012,01,14,11,16,4.20
2012,01,14,11,17,4.10
2012,01,14,11,18,4.10
2012,01,14,11,19,4.10
2012,01,14,11,20,4.10
2012,01,14,11,21,4.10
2012,01,14,11,22,4.10
2012,01,14,11,23,4.10
2012,01,14,11,24,4.10
2012,01,14,11,25,4.10
2012,01,14,11,26,4.10
2012,01,14,11,27,4.10
2012,01,14,11,28,4.10
2012,01,14,11,29,4.10
2012,01,14,11,30,4.20
2012,01,14,11,31,4.20
2012,01,14,11,32,4.20
2012,01,14,11,33,4.20
2012,01,14,11,34,4.10
2012,01,14,11,35,4.10
2012,01,14,11,36,4.20
2012,01,14,11,37,4.20
2012,01,14,11,38,4.30
2012,01,14,11,39,4.30
2012,01,14,11,40,4.30
2012,01,14,11,41,4.30
2012,01,14,11,42,4.30
2012,01,14,11,43,4.30
2012,01,14,11,44,4.30
2012,01,14,11,45,4.30
2012,01,14,11,46,4.30
2012,01,14,11,47,4.30
2012,01,14,11,48,4.30
2012,01,14,11,49,4.30
2012,01,14,11,50,4.40
2012,01,14,11,51,4.40
2012,01,14,11,52,4.40
2012,01,14,11,53,4.40
2012,01,14,11,54,4.40
2012,01,14,11,55,4.40
2012,01,14,11,56,4.30
2012,01,14,11,57,4.30
2012,01,14,11,58,4.30
2012,01,14,11,59,4.30
2012,01,14,12,00,4.30
2012,01,14,12,01,4.40
2012,01,14,12,02,4.40
2012,01,14,12,03,4.40
2012,01,14,12,04,4.40
2012,01,14,12,05,4.50
2012,01,14,12,06,4.50
2012,01,14,12,07,4.50
2012,01,14,12,08,4.50
2012,01,14,12,09,4.60
2012,01,14,12,10,4.60
2012,01,14,12,11,4.60
2012,01,14,12,12,4.60
2012,01,14,12,13,4.60
2012,01,14,12,14,4.60
2012,01,14,12,15,4.60
2012,01,14,12,16,4.60
2012,01,14,12,17,4.60
2012,01,14,12,18,4.60
2012,01,14,12,19,4.60
2012,01,14,12,20,4.60
2012,01,14,12,21,4.60
2012,01,14,12,22,4.60
2012,01,14,12,23,4.60
2012,01,14,12,24,4.60
2012,01,14,12,25,4.60
2012,01,14,12,26,4.60
2012,01,14,12,27,4.60
2012,01,14,12,28,4.70
2012,01,14,12,29,4.70
2012,01,14,12,30,4.70
2012,01,14,12,31,4.70
2012,01,14,12,32,4.60
2012,01,14,12,33,4.50
2012,01,14,12,34,4.50
2012,01,14,12,35,4.40
2012,01,14,12,36,4.30
2012,01,14,12,37,4.20
2012,01,14,12,38,4.10
2012,01,14,12,39,4.00
2012,01,14,12,40,3.90
2012,01,14,12,41,3.90
2012,01,14,12,42,3.80
2012,01,14,12,43,3.80
2012,01,14,12,44,3.70
2012,01,14,12,45,3.60
2012,01,14,12,46,3.50
2012,01,14,12,47,3.40
2012,01,14,12,48,3.30
2012,01,14,12,49,3.30
2012,01,14,12,50,3.20
2012,01,14,12,51,3.30
2012,01,14,12,52,3.30
2012,01,14,12,53,3.30
2012,01,14,12,54,3.30
2012,01,14,12,55,3.30
2012,01,14,12,56,3.30
2012,01,14,12,57,3.30
2012,01,14,12,58,3.20
2012,01,14,12,59,3.20
2012,01,14,13,00,3.20
2012,01,14,13,01,3.30
2012,01,14,13,02,3.30
2012,01,14,13,03,3.30
2012,01,14,13,04,3.30
2012,01,14,13,05,3.30
2012,01,14,13,06,3.30
2012,01,14,13,07,3.40
2012,01,14,13,08,3.40
2012,01,14,13,09,3.40
2012,01,14,13,10,3.50
2012,01,14,13,11,3.50
2012,01,14,13,12,3.50
2012,01,14,13,13,3.60
2012,01,14,13,14,3.60
2012,01,14,13,15,3.60
2012,01,14,13,16,3.70
2012,01,14,13,17,3.70
2012,01,14,13,18,3.70
2012,01,14,13,19,3.70
2012,01,14,13,20,3.80
2012,01,14,13,21,3.80
2012,01,14,13,22,3.80
2012,01,14,13,23,3.90
2012,01,14,13,24,3.90
2012,01,14,13,25,3.90
2012,01,14,13,26,3.90
2012,01,14,13,27,3.90
2012,01,14,13,28,4.00
2012,01,14,13,29,4.00
2012,01,14,13,30,4.00
2012,01,14,13,31,4.00
2012,01,14,13,32,4.10
2012,01,14,13,33,4.10
2012,01,14,13,34,4.10
2012,01,14,13,35,4.20
2012,01,14,13,36,4.20
2012,01,14,13,37,4.20
2012,01,14,13,38,4.20
2012,01,14,13,39,4.20
2012,01,14,13,40,4.20
2012,01,14,13,41,4.20
2012,01,14,13,42,4.20
2012,01,14,13,43,4.20
2012,01,14,13,44,4.20
2012,01,14,13,45,4.20
2012,01,14,13,46,4.20
2012,01,14,13,47,4.20
2012,01,14,13,48,4.30
2012,01,14,13,49,4.30
2012,01,14,13,50,4.30
2012,01,14,13,51,4.30
2012,01,14,13,52,4.30
2012,01,14,13,53,4.30
2012,01,14,13,54,4.30
2012,01,14,13,55,4.30
2012,01,14,13,56,4.30
2012,01,14,13,57,4.30
2012,01,14,13,58,4.30
2012,01,14,13,59,4.30
2012,01,14,14,00,4.30
2012,01,14,14,01,4.30
2012,01,14,14,02,4.30
2012,01,14,14,03,4.30
2012,01,14,14,04,4.30
2012,01,14,14,05,4.30
2012,01,14,14,06,4.30
2012,01,14,14,07,4.30
2012,01,14,14,08,4.30
2012,01,14,14,09,4.30
2012,01,14,14,10,4.30
2012,01,14,14,11,4.30
2012,01,14,14,12,4.30
2012,01,14,14,13,4.20
2012,01,14,14,14,4.20
2012,01,14,14,15,4.10
2012,01,14,14,16,4.10
2012,01,14,14,17,4.00
2012,01,14,14,18,3.90
2012,01,14,14,19,3.90
2012,01,14,14,20,3.80
2012,01,14,14,21,3.70
2012,01,14,14,22,3.70
2012,01,14,14,23,3.60
2012,01,14,14,24,3.20
2012,01,14,14,25,2.60
2012,01,14,14,26,2.20
2012,01,14,14,27,1.80
2012,01,14,14,28,1.60
2012,01,14,14,29,1.40
2012,01,14,14,30,1.30
2012,01,14,14,31,1.30
2012,01,14,14,32,1.20
2012,01,14,14,33,1.10
2012,01,14,14,34,1.10
2012,01,14,14,35,1.10
2012,01,14,14,36,1.10
2012,01,14,14,37,1.10
2012,01,14,14,38,1.10
2012,01,14,14,39,1.10
2012,01,14,14,40,1.10
2012,01,14,14,41,1.10
2012,01,14,14,42,1.10
2012,01,14,14,43,1.10
2012,01,14,14,44,1.10
2012,01,14,14,45,1.10
2012,01,14,14,46,1.20
2012,01,14,14,47,1.20
2012,01,14,14,48,1.20
2012,01,14,14,49,1.20
2012,01,14,14,50,1.20
2012,01,14,14,51,1.20
2012,01,14,14,52,1.30
2012,01,14,14,53,1.30
2012,01,14,14,54,1.30
2012,01,14,14,55,1.30
2012,01,14,14,56,1.30
2012,01,14,14,57,1.40
2012,01,14,14,58,1.40
2012,01,14,14,59,1.50
2012,01,14,15,00,1.50
2012,01,14,15,01,1.60
2012,01,14,15,02,1.70
2012,01,14,15,03,1.70
2012,01,14,15,04,1.70
2012,01,14,15,05,1.80
2012,01,14,15,06,1.80
2012,01,14,15,07,1.80
2012,01,14,15,08,1.80
2012,01,14,15,09,1.90
2012,01,14,15,10,1.90
2012,01,14,15,11,2.00
2012,01,14,15,12,2.10
2012,01,14,15,13,2.20
2012,01,14,15,14,2.20
2012,01,14,15,15,2.20
2012,01,14,15,16,2.20
2012,01,14,15,17,2.30
2012,01,14,15,18,2.30
2012,01,14,15,19,2.30
2012,01,14,15,20,2.40
2012,01,14,15,21,2.40
2012,01,14,15,22,2.40
2012,01,14,15,23,2.50
2012,01,14,15,24,2.50
2012,01,14,15,25,2.50
2012,01,14,15,26,2.60
2012,01,14,15,27,2.60
2012,01,14,15,28,2.60
2012,01,14,15,29,2.50
2012,01,14,15,30,2.50
2012,01,14,15,31,2.40
2012,01,14,15,32,2.40
2012,01,14,15,33,2.40
2012,01,14,15,34,2.30
2012,01,14,15,35,2.30
2012,01,14,15,36,2.30
2012,01,14,15,37,2.20
2012,01,14,15,38,2.20
2012,01,14,15,39,2.20
2012,01,14,15,40,2.20
2012,01,14,15,41,2.20
2012,01,14,15,42,2.20
2012,01,14,15,43,2.20
2012,01,14,15,44,2.20
2012,01,14,15,45,2.10
2012,01,14,15,46,2.10
2012,01,14,15,47,2.10
2012,01,14,15,48,2.10
2012,01,14,15,49,2.10
2012,01,14,15,50,2.10
2012,01,14,15,51,2.10
2012,01,14,15,52,2.10
2012,01,14,15,53,2.10
2012,01,14,15,54,2.00
2012,01,14,15,55,2.00
2012,01,14,15,56,2.00
2012,01,14,15,57,2.10
2012,01,14,15,58,2.10
2012,01,14,15,59,2.10
2012,01,14,16,00,2.10
2012,01,14,16,01,2.10
2012,01,14,16,02,2.10
2012,01,14,16,03,2.10
2012,01,14,16,04,2.10
2012,01,14,16,05,2.10
2012,01,14,16,06,2.10
2012,01,14,16,07,2.10
2012,01,14,16,08,2.10
2012,01,14,16,09,2.20
2012,01,14,16,10,2.20
2012,01,14,16,11,2.20
2012,01,14,16,12,2.10
2012,01,14,16,13,2.10
2012,01,14,16,14,2.10
2012,01,14,16,15,2.10
2012,01,14,16,16,2.00
2012,01,14,16,17,2.00
2012,01,14,16,18,2.00
2012,01,14,16,19,2.00
2012,01,14,16,20,1.90
2012,01,14,16,21,1.90
2012,01,14,16,22,1.90
2012,01,14,16,23,1.90
2012,01,14,16,24,1.90
2012,01,14,16,25,1.90
2012,01,14,16,26,1.90
2012,01,14,16,27,1.90
2012,01,14,16,28,1.90
2012,01,14,16,29,1.90
2012,01,14,16,30,1.90
2012,01,14,16,31,1.90
2012,01,14,16,32,1.90
2012,01,14,16,33,1.90
2012,01,14,16,34,1.90
2012,01,14,16,35,1.90
2012,01,14,16,36,1.90
2012,01,14,16,37,1.90
2012,01,14,16,38,1.90
2012,01,14,16,39,1.90
2012,01,14,16,40,1.80
2012,01,14,16,41,1.80
2012,01,14,16,42,1.80
2012,01,14,16,43,1.80
2012,01,14,16,44,1.90
2012,01,14,16,45,1.90
2012,01,14,16,46,1.90
2012,01,14,16,47,1.80
2012,01,14,16,48,1.80
2012,01,14,16,49,1.80
2012,01,14,16,50,1.80
2012,01,14,16,51,1.70
2012,01,14,16,52,1.70
2012,01,14,16,53,1.60
2012,01,14,16,54,1.60
2012,01,14,16,55,1.60
2012,01,14,16,56,1.50
2012,01,14,16,57,1.40
2012,01,14,16,58,1.40
2012,01,14,16,59,1.40
2012,01,14,17,00,1.40
2012,01,14,17,01,1.40
2012,01,14,17,02,1.40
2012,01,14,17,03,1.30
2012,01,14,17,04,1.30
2012,01,14,17,05,1.30
2012,01,14,17,06,1.30
2012,01,14,17,07,1.30
2012,01,14,17,08,1.30
2012,01,14,17,09,1.30
2012,01,14,17,10,1.20
2012,01,14,17,11,1.10
2012,01,14,17,12,1.10
2012,01,14,17,13,1.10
2012,01,14,17,14,1.00
2012,01,14,17,15,1.00
2012,01,14,17,16,1.00
2012,01,14,17,17,1.00
2012,01,14,17,18,1.10
2012,01,14,17,19,1.10
2012,01,14,17,20,1.10
2012,01,14,17,21,1.10
2012,01,14,17,22,1.10
2012,01,14,17,23,1.20
2012,01,14,17,24,1.20
2012,01,14,17,25,1.20
2012,01,14,17,26,1.10
2012,01,14,17,27,1.10
2012,01,14,17,28,1.10
2012,01,14,17,29,1.10
2012,01,14,17,30,1.20
2012,01,14,17,31,1.20
2012,01,14,17,32,1.20
2012,01,14,17,33,1.30
2012,01,14,17,34,1.30
2012,01,14,17,35,1.30
2012,01,14,17,36,1.30
2012,01,14,17,37,1.30
2012,01,14,17,38,1.30
2012,01,14,17,39,1.30
2012,01,14,17,40,1.30
2012,01,14,17,41,1.30
2012,01,14,17,42,1.30
2012,01,14,17,43,1.30
2012,01,14,17,44,1.30
2012,01,14,17,45,1.30
2012,01,14,17,46,1.30
2012,01,14,17,47,1.40
2012,01,14,17,48,1.40
2012,01,14,17,49,1.50
2012,01,14,17,50,1.50
2012,01,14,17,51,1.50
2012,01,14,17,52,1.50
2012,01,14,17,53,1.50
2012,01,14,17,54,1.50
2012,01,14,17,55,1.50
2012,01,14,17,56,1.50
2012,01,14,17,57,1.50
2012,01,14,17,58,1.50
2012,01,14,17,59,1.50
2012,01,14,18,00,1.50
2012,01,14,18,01,1.50
2012,01,14,18,02,1.40
2012,01,14,18,03,1.40
2012,01,14,18,04,1.40
2012,01,14,18,05,1.30
2012,01,14,18,06,1.30
2012,01,14,18,07,1.30
2012,01,14,18,08,1.30
2012,01,14,18,09,1.30
2012,01,14,18,10,1.20
2012,01,14,18,11,1.20
2012,01,14,18,12,1.20
2012,01,14,18,13,1.10
2012,01,14,18,14,1.10
2012,01,14,18,15,1.10
2012,01,14,18,16,1.20
2012,01,14,18,17,1.20
2012,01,14,18,18,1.20
2012,01,14,18,19,1.20
2012,01,14,18,20,1.10
2012,01,14,18,21,1.10
2012,01,14,18,22,1.00
2012,01,14,18,23,0.90
2012,01,14,18,24,0.90
2012,01,14,18,25,0.90
2012,01,14,18,26,0.90
2012,01,14,18,27,0.90
2012,01,14,18,28,0.90
2012,01,14,18,29,0.80
2012,01,14,18,30,0.80
2012,01,14,18,31,0.80
2012,01,14,18,32,0.80
2012,01,14,18,33,0.80
2012,01,14,18,34,0.80
2012,01,14,18,35,0.80
2012,01,14,18,36,0.80
2012,01,14,18,37,0.80
2012,01,14,18,38,0.70
2012,01,14,18,39,0.70
2012,01,14,18,40,0.70
2012,01,14,18,41,0.70
2012,01,14,18,42,0.60
2012,01,14,18,43,0.60
2012,01,14,18,44,0.50
2012,01,14,18,45,0.50
2012,01,14,18,46,0.50
2012,01,14,18,47,0.40
2012,01,14,18,48,0.40
2012,01,14,18,49,0.40
2012,01,14,18,50,0.60
2012,01,14,18,51,0.70
2012,01,14,18,52,0.80
2012,01,14,18,53,1.00
2012,01,14,18,54,1.00
2012,01,14,18,55,1.10
2012,01,14,18,56,1.10
2012,01,14,18,57,1.10
2012,01,14,18,58,1.10
2012,01,14,18,59,1.10
2012,01,14,19,00,1.10
2012,01,14,19,01,1.10
2012,01,14,19,02,1.00
2012,01,14,19,03,1.00
2012,01,14,19,04,1.00
2012,01,14,19,05,1.00
2012,01,14,19,06,0.90
2012,01,14,19,07,0.90
2012,01,14,19,08,0.80
2012,01,14,19,09,0.80
2012,01,14,19,10,0.80
2012,01,14,19,11,0.70
2012,01,14,19,12,0.70
2012,01,14,19,13,0.60
2012,01,14,19,14,0.40
2012,01,14,19,15,0.30
2012,01,14,19,16,0.30
2012,01,14,19,17,0.20
2012,01,14,19,18,0.20
2012,01,14,19,19,0.10
2012,01,14,19,20,0.10
2012,01,14,19,21,0.00
2012,01,14,19,22,0.00
2012,01,14,19,23,-0.10
2012,01,14,19,24,-0.10
2012,01,14,19,25,-0.20
2012,01,14,19,26,-0.20
2012,01,14,19,27,-0.30
2012,01,14,19,28,-0.30
2012,01,14,19,29,-0.40
2012,01,14,19,30,-0.40
2012,01,14,19,31,-0.50
2012,01,14,19,32,-0.60
2012,01,14,19,33,-0.60
2012,01,14,19,34,-0.60
2012,01,14,19,35,-0.60
2012,01,14,19,36,-0.70
2012,01,14,19,37,-0.70
2012,01,14,19,38,-0.70
2012,01,14,19,39,-0.70
2012,01,14,19,40,-0.70
2012,01,14,19,41,-0.70
2012,01,14,19,42,-0.70
2012,01,14,19,43,-0.80
2012,01,14,19,44,-0.80
2012,01,14,19,45,-0.80
2012,01,14,19,46,-0.80
2012,01,14,19,47,-0.80
2012,01,14,19,48,-0.90
2012,01,14,19,49,-0.90
2012,01,14,19,50,-0.90
2012,01,14,19,51,-0.90
2012,01,14,19,52,-0.90
2012,01,14,19,53,-0.90
2012,01,14,19,54,-0.90
2012,01,14,19,55,-0.90
2012,01,14,19,56,-0.90
2012,01,14,19,57,-1.00
2012,01,14,19,58,-1.00
2012,01,14,19,59,-1.10
2012,01,14,20,00,-1.20
2012,01,14,20,01,-1.20
2012,01,14,20,02,-1.20
2012,01,14,20,03,-1.30
2012,01,14,20,04,-1.20
2012,01,14,20,05,-1.10
2012,01,14,20,06,-0.90
2012,01,14,20,07,-0.90
2012,01,14,20,08,-0.80
2012,01,14,20,09,-0.80
2012,01,14,20,10,-0.80
2012,01,14,20,11,-0.80
2012,01,14,20,12,-0.70
2012,01,14,20,13,-0.60
2012,01,14,20,14,-0.50
2012,01,14,20,15,-0.40
2012,01,14,20,16,-0.30
2012,01,14,20,17,-0.30
2012,01,14,20,18,-0.30
2012,01,14,20,19,-0.30
2012,01,14,20,20,-0.20
2012,01,14,20,21,-0.20
2012,01,14,20,22,-0.20
2012,01,14,20,23,-0.20
2012,01,14,20,24,-0.20
2012,01,14,20,25,-0.20
2012,01,14,20,26,-0.20
2012,01,14,20,27,-0.20
2012,01,14,20,28,-0.20
2012,01,14,20,29,-0.20
2012,01,14,20,30,-0.20
2012,01,14,20,31,-0.20
2012,01,14,20,32,-0.20
2012,01,14,20,33,-0.10
2012,01,14,20,34,-0.10
2012,01,14,20,35,-0.10
2012,01,14,20,36,0.00
2012,01,14,20,37,0.00
2012,01,14,20,38,0.00
2012,01,14,20,39,0.10
2012,01,14,20,40,0.10
2012,01,14,20,41,0.00
2012,01,14,20,42,0.00
2012,01,14,20,43,0.00
2012,01,14,20,44,0.00
2012,01,14,20,45,0.00
2012,01,14,20,46,-0.10
2012,01,14,20,47,-0.10
2012,01,14,20,48,-0.20
2012,01,14,20,49,-0.20
2012,01,14,20,50,-0.20
2012,01,14,20,51,-0.20
2012,01,14,20,52,-0.20
2012,01,14,20,53,-0.10
2012,01,14,20,54,-0.10
2012,01,14,20,55,-0.10
2012,01,14,20,56,0.00
2012,01,14,20,57,0.00
2012,01,14,20,58,0.10
2012,01,14,20,59,0.10
2012,01,14,21,00,0.20
2012,01,14,21,01,0.20
2012,01,14,21,02,0.30
2012,01,14,21,03,0.30
2012,01,14,21,04,0.40
2012,01,14,21,05,0.40
2012,01,14,21,06,0.40
2012,01,14,21,07,0.40
2012,01,14,21,08,0.40
2012,01,14,21,09,0.30
2012,01,14,21,10,0.30
2012,01,14,21,11,0.30
2012,01,14,21,12,0.30
2012,01,14,21,13,0.30
2012,01,14,21,14,0.20
2012,01,14,21,15,0.10
2012,01,14,21,16,0.00
2012,01,14,21,17,0.00
2012,01,14,21,18,-0.10
2012,01,14,21,19,-0.20
2012,01,14,21,20,-0.30
2012,01,14,21,21,-0.30
2012,01,14,21,22,-0.40
2012,01,14,21,23,-0.40
2012,01,14,21,24,-0.50
2012,01,14,21,25,-0.50
2012,01,14,21,26,-0.60
2012,01,14,21,27,-0.60
2012,01,14,21,28,-0.70
2012,01,14,21,29,-0.80
2012,01,14,21,30,-0.80
2012,01,14,21,31,-0.80
2012,01,14,21,32,-0.80
2012,01,14,21,33,-0.80
2012,01,14,21,34,-0.80
2012,01,14,21,35,-0.80
2012,01,14,21,36,-0.80
2012,01,14,21,37,-0.80
2012,01,14,21,38,-0.80
2012,01,14,21,39,-0.80
2012,01,14,21,40,-0.80
2012,01,14,21,41,-0.80
2012,01,14,21,42,-0.80
2012,01,14,21,43,-0.80
2012,01,14,21,44,-0.80
2012,01,14,21,45,-0.80
2012,01,14,21,46,-0.80
2012,01,14,21,47,-0.80
2012,01,14,21,48,-0.80
2012,01,14,21,49,-0.80
2012,01,14,21,50,-0.80
2012,01,14,21,51,-0.80
2012,01,14,21,52,-0.80
2012,01,14,21,53,-0.80
2012,01,14,21,54,-0.80
2012,01,14,21,55,-0.80
2012,01,14,21,56,-0.80
2012,01,14,21,57,-0.80
2012,01,14,21,58,-0.80
2012,01,14,21,59,-0.90
2012,01,14,22,00,-0.90
2012,01,14,22,01,-0.90
2012,01,14,22,02,-1.00
2012,01,14,22,03,-1.00
2012,01,14,22,04,-1.10
2012,01,14,22,05,-1.10
2012,01,14,22,06,-1.10
2012,01,14,22,07,-1.10
2012,01,14,22,08,-1.10
2012,01,14,22,09,-1.10
2012,01,14,22,10,-1.20
2012,01,14,22,11,-1.10
2012,01,14,22,12,-1.20
2012,01,14,22,13,-1.20
2012,01,14,22,14,-1.20
2012,01,14,22,15,-1.30
2012,01,14,22,16,-1.30
2012,01,14,22,17,-1.30
2012,01,14,22,18,-1.40
2012,01,14,22,19,-1.40
2012,01,14,22,20,-1.40
2012,01,14,22,21,-1.40
2012,01,14,22,22,-1.40
2012,01,14,22,23,-1.50
2012,01,14,22,24,-1.50
2012,01,14,22,25,-1.50
2012,01,14,22,26,-1.50
2012,01,14,22,27,-1.50
2012,01,14,22,28,-1.40
2012,01,14,22,29,-1.40
2012,01,14,22,30,-1.40
2012,01,14,22,31,-1.40
2012,01,14,22,32,-1.40
2012,01,14,22,33,-1.40
2012,01,14,22,34,-1.40
2012,01,14,22,35,-1.40
2012,01,14,22,36,-1.40
2012,01,14,22,37,-1.40
2012,01,14,22,38,-1.40
2012,01,14,22,39,-1.40
2012,01,14,22,40,-1.40
2012,01,14,22,41,-1.40
2012,01,14,22,42,-1.30
2012,01,14,22,43,-1.40
2012,01,14,22,44,-1.30
2012,01,14,22,45,-1.30
2012,01,14,22,46,-1.30
2012,01,14,22,47,-1.30
2012,01,14,22,48,-1.30
2012,01,14,22,49,-1.40
2012,01,14,22,50,-1.40
2012,01,14,22,51,-1.40
2012,01,14,22,52,-1.40
2012,01,14,22,53,-1.40
2012,01,14,22,54,-1.30
2012,01,14,22,55,-1.40
2012,01,14,22,56,-1.40
2012,01,14,22,57,-1.40
2012,01,14,22,58,-1.40
2012,01,14,22,59,-1.40
2012,01,14,23,00,-1.40
2012,01,14,23,01,-1.40
2012,01,14,23,02,-1.40
2012,01,14,23,03,-1.40
2012,01,14,23,04,-1.40
2012,01,14,23,05,-1.40
2012,01,14,23,06,-1.40
2012,01,14,23,07,-1.40
2012,01,14,23,08,-1.40
2012,01,14,23,09,-1.30
2012,01,14,23,10,-1.30
2012,01,14,23,11,-1.20
2012,01,14,23,12,-1.10
2012,01,14,23,13,-1.00
2012,01,14,23,14,-0.90
2012,01,14,23,15,-0.90
2012,01,14,23,16,-0.90
2012,01,14,23,17,-0.90
2012,01,14,23,18,-0.80
2012,01,14,23,19,-0.80
2012,01,14,23,20,-0.90
2012,01,14,23,21,-0.90